NOAA 17 DEB

Satellite information

Favourite Embed

Satellite Type and Status

DEBRISIN ORBIT

Key statistics

Satellite NOAA 17 DEB at a glance.

Uptime

8574

Days in orbit

Revolutions

≈ 14.2

Per day

Orbit

SSO

Sun Synchronous Orbit

Inclination

98.7

Latest

Satellite identification and parameters

Extended collection of information and parameters for NOAA 17 DEB.

Object identification

Identified? True

Debris? True

Object name: NOAA 17 DEB

International designator: 2002-032BX

Object number (NORAD): 48738

Object ID (CCSDS): 48738

Country: UNITED STATES OF AMERICA (US)

Current information (Y/N): Y

RCS size: SMALL

Orbital parameters

Period: 101.449 minutes

Inclination: 98.7323 deg

SMA: 7205.392 km

Apoapsis: 894.997 km

Periapsis: 759.517 km

RAAN: 260.4813 deg

Eccentricy: 0.00940126

Argument of periapsis: 275.9175 deg

Mean anomaly: 83.1291 deg

Mean motion: 14.19437646 rev/day

Mean motion (dot): 0.00007088 rev/day2

B* drag term: 0.0032403677 1/REarth

Two-line elements (TLE)

Creation date: Dec. 10, 2025, 10:40 a.m.

Reference frame: TEME

Reference center: EARTH

Epoch: Dec. 9, 2025, 4:53 p.m. UTC

TLE line 0: 0 NOAA 17 DEB

TLE line 1: 1 48738U 02032BX 25343.70386501 .00007088 00000-0 32404-2 0 9992

TLE line 2: 2 48738 98.7323 260.4813 0094013 275.9175 83.1291 14.19437646242693

Live tracking on map

Real-time ground track for satellite NOAA 17 DEB.

In-orbit conjunctions

A list of the most updated potential collisions computed for object NOAA 17 DEB.

Target Orbit TCA Probability of collision Miss distance Type
MOS 1A (MOMO 1) SSO 2025-08-01 21:03:52 0.0004143388 830.0 (m) PAYLOAD
NOAA 17 SSO 2025-02-26 18:16:53 0.000208103 951.0 (m) PAYLOAD
COSMOS 2406 LEO 2024-09-06 22:33:26 0.0002218045 680.0 (m) PAYLOAD

Associated space launch

NOAA M carried weather imagers and microwave and infrared sounders, as well as a SARSAT search-and-rescue package. It had an on-orbit mass of 1475 kg.

NOAA 17 DEB was lifted into orbit during the mission ‘Titan II SLV | NOAA 17’, on board a Titan II SLV space rocket.

The launch took place on June 24, 2002, 6:23 p.m. from Space Launch Complex 4W.

For more information about the launch, click the button.

Launch to space Titan II SLV | NOAA 17
Titan II SLV | NOAA 17

Agency: N/A

Status: Launch Successful

Launch date: June 24, 2002, 6:23 p.m. UTC

Rocket: Titan II SLV

Launch pad: Space Launch Complex 4W

Location: Vandenberg SFB, CA, USA

...

Latest news about this satellite

There are no fresh news available about this satellite. Check back as we update our databases every day.


Newsletter sign-up

Weekly statistics, charts and insights to help you stay on top of the space industry.